Weather Roundup
Issued by NWS Springfield, MO

Home | Current Version | Previous Version | Text Only | Print | Product List | Glossary On
Versions: 1 2 3 4 5 6 7 8 9 10 11 12 13 14 15 16 17 18 19 20 21 22 23 24 25 26 27 28 29 30 31 32 33 34 35 36 37 38 39 40 41 42 43 44 45 46 47 48 49 50
000
NZUS99 KSGF 251757
HRRSGF

HOURLY WEATHER
NATIONAL WEATHER SERVICE SPRINGFIELD MO
100 PM CDT SAT MAR 25 2017

......SGF CWA......

CITY           SKY/WX    TMP DP  RH WIND       PRES   REMARKS
SPRINGFIELD    CLOUDY    58  52  80 W9        29.79S
6HR MIN TEMP:  53; 6HR MAX TEMP:  61; 6HR PCP:  0.11;

JOPLIN         CLOUDY    51  48  89 SW12      29.86S
6HR MIN TEMP:  50; 6HR MAX TEMP:  52;

WEST PLAINS    LGT RAIN  57  53  86 S7        29.82F
6HR MIN TEMP:  54; 6HR MAX TEMP:  61; 6HR PCP:  0.42;

ROLLA          CLOUDY    58  57  97 SE8       29.81F
6HR MIN TEMP:  52; 6HR MAX TEMP:  59; 6HR PCP:  0.17;

OSAGE BEACH    CLOUDY   N/A N/A N/A VRB3      29.82F
BRANSON        PTSUNNY   59  50  72 SW9       29.82S

......SURROUNDING SGF CWA......

CITY           SKY/WX    TMP DP  RH WIND       PRES   REMARKS
CHANUTE        LGT RAIN  48  43  82 NW10      29.87S
PARSONS        LGT RAIN  49  44  83 W12       29.90R
COFFEYVILLE    LGT RAIN  49  44  83 W12       29.91R
EMPORIA        CLOUDY    44  44 100 NW13      29.89S FOG
HARRISON AR    CLOUDY    58  50  75 W14G22    29.83R

......KANSAS AND MISSOURI......

CITY           SKY/WX    TMP DP  RH WIND       PRES   REMARKS
KANSAS CTY INT CLOUDY    51  50  96 N15       29.84F
SEDALIA        CLOUDY    62  53  72 NE7       29.82F
ST JOSEPH      CLOUDY    49  47  93 N14       29.88F
ST LOUIS       LGT RAIN  62  54  74 SE12      29.88F
WICHITA        CLOUDY    44  40  85 NW16G23   29.96R
TOPEKA         CLOUDY    48  47  96 N10       29.87S
OLATHE         CLOUDY    54  54 100 N9        29.82S

......TENNESSEE......

CITY           SKY/WX    TMP DP  RH WIND       PRES   REMARKS
MEMPHIS        NOT AVBL
NASHVILLE      PTSUNNY   74  53  48 S20G28    30.06F

......ARKANSAS.......

CITY           SKY/WX    TMP DP  RH WIND       PRES   REMARKS
FAYETTEVILLE   CLOUDY    48  48 100 W13       29.90R FOG
FT SMITH       CLOUDY    53  46  77 W16       29.94R
LITTLE ROCK    PTSUNNY   66  53  63 SW17G24   29.90S

......OKLAHOMA.......

CITY           SKY/WX    TMP DP  RH WIND       PRES   REMARKS
TULSA          CLOUDY    51  45  79 W16       29.94R
PONCA CITY     CLOUDY    48  40  73 NW10G24   29.97S
MCALESTER      CLOUDY    58  44  60 W13       29.97F
OKLAHOMA CITY  CLOUDY    52  42  69 NW16      30.00F

......IOWA............

CITY           SKY/WX    TMP DP  RH WIND       PRES   REMARKS
DES MOINES     NOT AVBL
QUAD CITIES    CLOUDY    45  43  93 E13       29.92S

......ILLINOIS........

CITY           SKY/WX    TMP DP  RH WIND       PRES   REMARKS
QUINCY         NOT AVBL
CHICAGO        CLOUDY    43  40  89 NE14      30.03F




USA.gov is the U.S. government's official web portal to all federal, state and local government web resources and services.